When you browse on this site, cookies collect data to enhance your experience and personalize the content and advertising you see.
Visit our Privacy Policy to learn more. By continuing to use the site, you agree to this use of cookies and data.
  • In Hungary
  • List of Countries
  • For 7 days
  • Water Temperature
  • Satellite Maps
  • Weather Map
  • News
  • Weather Widgets
  • user-avatar
    Login

    Hourly Weather Vestfold

    Today, 18 July, Thursday

    Time Temperature Precipitation Wind Pressure Humidity
    00:00 +12°C° 0 mm 4 mps 751 mmHg 94%
    01:00 +12°C° 0 mm 4 mps 751 mmHg 95%
    02:00 +12°C° 0 mm 4 mps 751 mmHg 95%
    03:00 +12°C° 0 mm 4 mps 751 mmHg 95%
    04:00 +12°C° 0 mm 5 mps 751 mmHg 95%
    05:00 +13°C° 0 mm 5 mps 751 mmHg 89%
    06:00 +14°C° 0 mm 5 mps 751 mmHg 83%
    07:00 +16°C° 0 mm 5 mps 751 mmHg 77%
    08:00 +17°C° 0 mm 5 mps 751 mmHg 72%
    09:00 +19°C° 0 mm 5 mps 751 mmHg 68%
    10:00 +20°C° 0 mm 5 mps 751 mmHg 64%
    11:00 +20°C° 0 mm 5 mps 751 mmHg 64%
    12:00 +20°C° 0 mm 5 mps 751 mmHg 65%
    13:00 +20°C° 0 mm 5 mps 751 mmHg 66%
    14:00 +20°C° 0 mm 5 mps 751 mmHg 65%
    15:00 +20°C° 0 mm 4 mps 751 mmHg 64%
    16:00 +20°C° 0 mm 4 mps 751 mmHg 64%
    17:00 +19°C° 0 mm 4 mps 751 mmHg 67%
    18:00 +19°C° 0 mm 3 mps 751 mmHg 70%
    19:00 +18°C° 0 mm 3 mps 750 mmHg 74%
    20:00 +17°C° 0 mm 2 mps 751 mmHg 81%
    21:00 +15°C° 0 mm 2 mps 751 mmHg 88%
    22:00 +14°C° 0 mm 1 mps 751 mmHg 96%
    23:00 +14°C° 0.3 mm 1 mps 751 mmHg 96%

    Tomorrow, 19 July, Friday

    Time Temperature Precipitation Wind Pressure Humidity
    00:00 +15°C° 0.3 mm 2 mps 751 mmHg 96%
    01:00 +15°C° 0.3 mm 2 mps 751 mmHg 95%
    02:00 +15°C° 0.6 mm 2 mps 751 mmHg 96%
    03:00 +15°C° 0.6 mm 2 mps 751 mmHg 96%
    04:00 +15°C° 0.6 mm 2 mps 751 mmHg 97%
    05:00 +15°C° 0.4 mm 2 mps 751 mmHg 96%
    06:00 +15°C° 0.4 mm 2 mps 751 mmHg 96%
    07:00 +15°C° 0.4 mm 1 mps 751 mmHg 96%
    08:00 +16°C° 0.2 mm 2 mps 751 mmHg 95%
    09:00 +16°C° 0.2 mm 2 mps 751 mmHg 94%
    10:00 +17°C° 0.2 mm 3 mps 751 mmHg 93%
    11:00 +18°C° 0.8 mm 3 mps 751 mmHg 90%
    12:00 +19°C° 0.8 mm 3 mps 751 mmHg 88%
    13:00 +19°C° 0.8 mm 3 mps 751 mmHg 85%
    14:00 +20°C° 0.4 mm 3 mps 751 mmHg 81%
    15:00 +20°C° 0.4 mm 3 mps 751 mmHg 77%
    16:00 +20°C° 0.4 mm 3 mps 751 mmHg 73%
    17:00 +20°C° 0 mm 3 mps 751 mmHg 71%
    18:00 +20°C° 0 mm 3 mps 751 mmHg 69%
    19:00 +19°C° 0 mm 3 mps 751 mmHg 67%
    20:00 +17°C° 0 mm 3 mps 751 mmHg 76%
    21:00 +16°C° 0 mm 3 mps 752 mmHg 86%
    22:00 +13°C° 0 mm 3 mps 752 mmHg 95%
    23:00 +13°C° 0 mm 3 mps 752 mmHg 95%

    Day after tomorrow, 20 July, Saturday

    Time Temperature Precipitation Wind Pressure Humidity
    00:00 +13°C° 0 mm 3 mps 752 mmHg 95%
    01:00 +14°C° 0 mm 2 mps 752 mmHg 95%
    02:00 +14°C° 0 mm 2 mps 752 mmHg 94%
    03:00 +14°C° 0 mm 2 mps 752 mmHg 93%
    04:00 +13°C° 0 mm 2 mps 752 mmHg 93%
    05:00 +15°C° 0 mm 2 mps 752 mmHg 87%
    06:00 +16°C° 0 mm 2 mps 753 mmHg 81%
    07:00 +17°C° 0 mm 2 mps 753 mmHg 75%
    08:00 +18°C° 0 mm 3 mps 753 mmHg 69%
    09:00 +20°C° 0 mm 3 mps 753 mmHg 63%
    10:00 +21°C° 0 mm 3 mps 753 mmHg 57%
    11:00 +21°C° 0 mm 3 mps 753 mmHg 55%
    12:00 +21°C° 0 mm 3 mps 753 mmHg 52%
    13:00 +22°C° 0 mm 3 mps 752 mmHg 49%
    14:00 +22°C° 0 mm 3 mps 752 mmHg 52%
    15:00 +22°C° 0 mm 3 mps 752 mmHg 55%
    16:00 +22°C° 0 mm 3 mps 752 mmHg 58%
    17:00 +20°C° 0 mm 3 mps 751 mmHg 66%
    18:00 +19°C° 0 mm 3 mps 751 mmHg 73%
    19:00 +18°C° 0 mm 3 mps 751 mmHg 81%
    20:00 +18°C° 0.1 mm 3 mps 751 mmHg 86%
    21:00 +17°C° 0.1 mm 3 mps 751 mmHg 90%
    22:00 +17°C° 0.1 mm 3 mps 751 mmHg 95%
    23:00 +17°C° 0.2 mm 3 mps 751 mmHg 95%

    21 July, Sunday

    Time Temperature Precipitation Wind Pressure Humidity
    00:00 +16°C° 0.2 mm 2 mps 751 mmHg 96%
    01:00 +16°C° 0.2 mm 2 mps 751 mmHg 97%
    02:00 +16°C° 0.1 mm 2 mps 751 mmHg 97%
    03:00 +16°C° 0.1 mm 1 mps 751 mmHg 97%
    04:00 +16°C° 0.1 mm 1 mps 750 mmHg 97%
    05:00 +18°C° 0 mm 1 mps 750 mmHg 95%
    06:00 +18°C° 0 mm 1 mps 751 mmHg 93%
    07:00 +19°C° 0 mm 1 mps 751 mmHg 92%
    08:00 +20°C° 0.1 mm 1 mps 751 mmHg 87%
    09:00 +21°C° 0.1 mm 1 mps 751 mmHg 82%
    10:00 +21°C° 0.1 mm 1 mps 751 mmHg 77%
    11:00 +22°C° 0.2 mm 1 mps 751 mmHg 76%
    12:00 +22°C° 0.2 mm 1 mps 751 mmHg 74%
    13:00 +23°C° 0.2 mm 1 mps 751 mmHg 73%
    14:00 +23°C° 0.7 mm 1 mps 751 mmHg 77%
    15:00 +22°C° 0.7 mm 1 mps 751 mmHg 81%
    16:00 +22°C° 0.7 mm 1 mps 751 mmHg 85%
    17:00 +21°C° 0.3 mm 1 mps 751 mmHg 87%
    18:00 +21°C° 0.3 mm 1 mps 751 mmHg 88%
    19:00 +20°C° 0.3 mm 1 mps 751 mmHg 89%
    20:00 +19°C° 0 mm 1 mps 752 mmHg 92%
    21:00 +18°C° 0 mm 1 mps 752 mmHg 94%
    22:00 +16°C° 0 mm 1 mps 752 mmHg 96%
    23:00 +16°C° 0 mm 1 mps 753 mmHg 96%

    22 July, Monday

    Time Temperature Precipitation Wind Pressure Humidity
    00:00 +15°C° 0 mm 1 mps 753 mmHg 96%
    01:00 +15°C° 0 mm 1 mps 753 mmHg 95%
    02:00 +15°C° 0 mm 2 mps 754 mmHg 95%
    03:00 +15°C° 0 mm 2 mps 754 mmHg 95%
    04:00 +15°C° 0 mm 2 mps 754 mmHg 94%
    05:00 +16°C° 0 mm 2 mps 755 mmHg 91%
    06:00 +17°C° 0 mm 2 mps 755 mmHg 87%
    07:00 +18°C° 0 mm 2 mps 756 mmHg 84%
    08:00 +20°C° 0 mm 3 mps 756 mmHg 78%
    09:00 +21°C° 0 mm 3 mps 757 mmHg 72%
    10:00 +22°C° 0 mm 3 mps 757 mmHg 65%
    11:00 +24°C° 0 mm 2 mps 757 mmHg 64%
    12:00 +24°C° 0 mm 2 mps 758 mmHg 62%
    13:00 +25°C° 0 mm 2 mps 758 mmHg 61%
    14:00 +25°C° 0 mm 2 mps 758 mmHg 59%
    15:00 +26°C° 0 mm 2 mps 758 mmHg 58%
    16:00 +26°C° 0 mm 2 mps 758 mmHg 56%
    17:00 +25°C° 0 mm 2 mps 758 mmHg 60%
    18:00 +25°C° 0 mm 2 mps 758 mmHg 64%
    19:00 +24°C° 0 mm 2 mps 758 mmHg 68%
    20:00 +21°C° 0 mm 2 mps 759 mmHg 75%
    21:00 +19°C° 0 mm 2 mps 759 mmHg 82%
    22:00 +18°C° 0 mm 1 mps 759 mmHg 89%
    23:00 +18°C° 0 mm 1 mps 759 mmHg 89%

    23 July, Tuesday

    Time Temperature Precipitation Wind Pressure Humidity
    00:00 +18°C° 0 mm 1 mps 760 mmHg 90%
    01:00 +15°C° 0 mm 0 mps 760 mmHg 90%
    02:00 +15°C° 0 mm 0 mps 760 mmHg 91%
    03:00 +15°C° 0 mm 1 mps 760 mmHg 91%
    04:00 +15°C° 0 mm 1 mps 760 mmHg 92%
    05:00 +18°C° 0 mm 1 mps 760 mmHg 85%
    06:00 +20°C° 0 mm 1 mps 760 mmHg 77%
    07:00 +20°C° 0 mm 2 mps 760 mmHg 70%
    08:00 +21°C° 0 mm 2 mps 760 mmHg 65%
    09:00 +24°C° 0 mm 2 mps 760 mmHg 60%
    10:00 +25°C° 0 mm 3 mps 761 mmHg 55%
    11:00 +25°C° 0 mm 3 mps 761 mmHg 52%
    12:00 +25°C° 0 mm 3 mps 760 mmHg 49%
    13:00 +26°C° 0 mm 4 mps 760 mmHg 45%
    14:00 +26°C° 0 mm 4 mps 760 mmHg 47%
    15:00 +25°C° 0 mm 4 mps 760 mmHg 49%
    16:00 +25°C° 0 mm 4 mps 760 mmHg 50%
    17:00 +24°C° 0 mm 3 mps 760 mmHg 56%
    18:00 +22°C° 0 mm 3 mps 760 mmHg 61%
    19:00 +21°C° 0 mm 3 mps 760 mmHg 66%
    20:00 +19°C° 0 mm 2 mps 761 mmHg 75%
    21:00 +17°C° 0 mm 2 mps 761 mmHg 83%
    22:00 +16°C° 0 mm 2 mps 761 mmHg 91%
    23:00 +15°C° 0 mm 2 mps 761 mmHg 92%
    Show more